Weather reports worldwide

Advertisment
Kinlochewe, United Kingdom (99092): temperature & dewpoint: 09.11.2018 05:00:00 - 15.11.2018 05:00:00 (GMT)Kinlochewe, United Kingdom (99092): temperature -20cm: 09.11.2018 05:00:00 - 15.11.2018 05:00:00 (GMT)Kinlochewe, United Kingdom (99092): precipitation: 09.11.2018 05:00:00 - 15.11.2018 05:00:00 (GMT)
Date & Time tt [°C] td [°C] tt -20cm [°C] rr [mm]
15.11.2018 05:00:00 - - - -
15.11.2018 04:00:00 11,8 9,9 - 0,0
15.11.2018 03:00:00 12,7 10,2 - 0,2
15.11.2018 02:00:00 14,9 11,2 - 0,0
15.11.2018 01:00:00 16,1 10,6 - 0,0
15.11.2018 00:00:00 16,4 10,5 - 0,0
14.11.2018 23:00:00 16,7 10,4 - 0,0
14.11.2018 22:00:00 16,2 10,9 - 0,2
14.11.2018 21:00:00 16,7 10,6 - 0,0
14.11.2018 20:00:00 16,7 10,8 - 0,0
14.11.2018 19:00:00 16,3 10,9 - 0,0
14.11.2018 18:00:00 15,4 11,5 - 0,0
14.11.2018 17:00:00 15,6 11,9 - 0,0
14.11.2018 16:00:00 14,8 12,7 - 0,2
14.11.2018 15:00:00 15,0 12,9 - 0,2
14.11.2018 14:00:00 15,0 12,8 - 0,2
14.11.2018 13:00:00 13,8 13,7 - 0,8
14.11.2018 12:00:00 11,1 10,8 - 1,8
14.11.2018 11:00:00 10,3 9,8 - 1,0
14.11.2018 10:00:00 10,1 9,3 - 0,2
14.11.2018 09:00:00 9,8 8,9 8,0 0,0
14.11.2018 08:00:00 10,2 8,9 - 0,0
14.11.2018 07:00:00 10,1 9,3 - 0,0
14.11.2018 06:00:00 10,0 9,4 - 0,0
14.11.2018 05:00:00 10,4 9,4 - 0,2
14.11.2018 04:00:00 10,7 9,4 - 0,0
14.11.2018 03:00:00 10,5 9,4 - 0,0
14.11.2018 02:00:00 10,4 9,3 - 0,6
14.11.2018 01:00:00 10,1 9,0 - 0,2
14.11.2018 00:00:00 10,6 8,9 - 0,2
13.11.2018 23:00:00 9,9 8,1 - 0,2
13.11.2018 22:00:00 10,3 6,9 - 0,0
13.11.2018 21:00:00 9,8 5,1 - 0,0
13.11.2018 20:00:00 10,6 4,7 - 0,0
13.11.2018 19:00:00 9,6 5,6 - 0,0
13.11.2018 18:00:00 10,0 5,7 - 0,0
13.11.2018 17:00:00 10,1 5,3 - 0,0
13.11.2018 16:00:00 9,8 6,4 - 0,0
13.11.2018 15:00:00 9,8 5,0 - 0,0
13.11.2018 14:00:00 10,8 5,7 - 0,0
13.11.2018 13:00:00 10,5 6,5 - 0,0
13.11.2018 12:00:00 9,7 6,6 - 0,0
13.11.2018 11:00:00 8,8 8,7 - 0,2
13.11.2018 10:00:00 7,6 7,5 - 0,2
13.11.2018 09:00:00 6,1 5,9 7,7 0,2
13.11.2018 08:00:00 5,7 5,3 - 0,0
13.11.2018 07:00:00 6,0 5,3 - 0,0
13.11.2018 06:00:00 6,2 5,4 - 0,0
13.11.2018 05:00:00 5,6 4,6 - 0,0
13.11.2018 04:00:00 5,2 4,3 - 0,0
13.11.2018 03:00:00 4,5 3,8 - 0,0
13.11.2018 02:00:00 4,6 4,1 - 0,0
13.11.2018 01:00:00 5,0 4,6 - 0,2
13.11.2018 00:00:00 6,4 6,2 - 0,0
12.11.2018 23:00:00 6,4 6,2 - 0,0
12.11.2018 22:00:00 6,5 6,2 - 0,0
12.11.2018 21:00:00 7,0 6,7 - 1,8
12.11.2018 20:00:00 7,3 6,7 - 1,0
12.11.2018 19:00:00 7,2 6,7 - 0,2
12.11.2018 18:00:00 7,5 6,9 - 0,0
12.11.2018 17:00:00 7,4 6,7 - 0,0
12.11.2018 16:00:00 8,2 7,2 - 0,0
12.11.2018 15:00:00 9,1 8,2 - 0,2
12.11.2018 14:00:00 10,2 8,8 - 0,0
12.11.2018 13:00:00 9,9 8,4 - 0,0
12.11.2018 12:00:00 9,0 8,4 - 0,0
12.11.2018 11:00:00 7,8 7,3 - 0,2
12.11.2018 10:00:00 6,9 6,5 - 0,0
12.11.2018 09:00:00 6,2 5,9 7,7 0,2
12.11.2018 08:00:00 5,8 5,4 - 0,2
12.11.2018 07:00:00 6,5 6,0 - 0,2
12.11.2018 06:00:00 6,7 5,7 - 0,0
12.11.2018 05:00:00 6,5 5,7 - 0,0
12.11.2018 04:00:00 5,2 4,6 - 0,2
12.11.2018 03:00:00 4,9 4,5 - 0,0
12.11.2018 02:00:00 2,7 2,4 - 0,2
12.11.2018 01:00:00 2,1 1,5 - 0,0
12.11.2018 00:00:00 1,3 0,5 - 0,0
11.11.2018 23:00:00 3,4 2,9 - 0,0
11.11.2018 22:00:00 2,5 2,2 - 0,0
11.11.2018 21:00:00 1,7 1,1 - 0,0
11.11.2018 20:00:00 3,2 2,4 - 0,0
11.11.2018 19:00:00 4,3 3,7 - 0,0
11.11.2018 18:00:00 5,0 4,5 - 0,0
11.11.2018 17:00:00 6,5 5,5 - 0,0
11.11.2018 16:00:00 6,9 6,0 - 0,2
11.11.2018 15:00:00 7,8 5,3 - 0,2
11.11.2018 14:00:00 8,5 5,1 - 0,0
11.11.2018 13:00:00 8,3 4,6 - 0,0
11.11.2018 12:00:00 7,1 4,5 - 0,0
11.11.2018 11:00:00 8,2 4,2 - 0,0
11.11.2018 10:00:00 4,4 3,4 - 0,0
11.11.2018 09:00:00 1,7 1,4 8,0 0,0
11.11.2018 08:00:00 1,3 1,0 - 0,0
11.11.2018 07:00:00 1,9 1,5 - 0,0
11.11.2018 06:00:00 1,0 0,3 - 0,0
11.11.2018 05:00:00 2,5 1,6 - 0,0
11.11.2018 04:00:00 3,6 2,8 - 0,0
11.11.2018 03:00:00 3,3 2,4 - 0,0
11.11.2018 02:00:00 4,5 3,2 - 0,0
11.11.2018 01:00:00 4,6 3,3 - 0,0
11.11.2018 00:00:00 5,4 3,3 - 0,0
10.11.2018 23:00:00 7,2 3,9 - 0,0
10.11.2018 22:00:00 5,8 3,1 - 0,0
10.11.2018 21:00:00 3,4 1,6 - 0,0
10.11.2018 20:00:00 2,1 0,6 - 0,0
10.11.2018 19:00:00 2,7 0,6 - 0,0
10.11.2018 18:00:00 4,3 1,5 - 0,0
10.11.2018 17:00:00 6,2 1,9 - 0,0
10.11.2018 16:00:00 7,8 2,0 - 0,2
10.11.2018 15:00:00 10,0 2,6 - 0,0
10.11.2018 14:00:00 10,0 3,2 - 0,0
10.11.2018 13:00:00 9,6 3,8 - 0,0
10.11.2018 12:00:00 9,7 4,2 - 0,0
10.11.2018 11:00:00 9,2 5,1 - 0,0
10.11.2018 10:00:00 8,4 5,8 - 0,0
10.11.2018 09:00:00 9,1 3,7 8,4 0,0
10.11.2018 08:00:00 9,3 4,9 - 0,0
10.11.2018 07:00:00 9,2 5,6 - 0,2
10.11.2018 06:00:00 9,6 5,0 - 0,0
10.11.2018 05:00:00 9,0 4,9 - 0,0
10.11.2018 04:00:00 8,3 3,7 - 0,0
10.11.2018 03:00:00 9,4 4,1 - 0,0
10.11.2018 02:00:00 10,5 5,5 - 0,0
10.11.2018 01:00:00 10,8 5,0 - 0,0
10.11.2018 00:00:00 10,5 5,0 - 0,0
09.11.2018 23:00:00 10,8 5,3 - 0,0
09.11.2018 22:00:00 10,7 4,5 - 0,0
09.11.2018 21:00:00 10,9 5,0 - 0,2
09.11.2018 20:00:00 10,3 7,1 - 0,2
09.11.2018 19:00:00 11,5 5,7 - 0,0
09.11.2018 18:00:00 11,4 5,6 - 0,0
09.11.2018 17:00:00 11,1 5,7 - 0,0
09.11.2018 16:00:00 10,6 5,6 - 0,0
09.11.2018 15:00:00 10,0 5,9 - 0,0
09.11.2018 14:00:00 10,4 5,7 - 0,0
09.11.2018 13:00:00 10,5 5,8 - 0,0
09.11.2018 12:00:00 10,5 5,6 - 0,0
09.11.2018 11:00:00 10,7 5,5 - 0,0
09.11.2018 10:00:00 10,7 5,2 - 0,0
09.11.2018 09:00:00 10,0 4,6 8,2 0,0
09.11.2018 08:00:00 9,5 4,5 - 0,0
09.11.2018 07:00:00 9,6 5,0 - 0,0
09.11.2018 06:00:00 9,2 5,2 - 0,0
09.11.2018 05:00:00 8,3 4,7 - 0,0

tt = temperature
td = dewpoint
tt -20cm = temperature -20cm
rr = precipitation

Next stations